Location: Cañada de la Miga
(34.7595°N, 106.2317°W)
Time: 13:01:14
(UTC+00:00)

Transit 2A Rocket - Visible Passes

Search period start: 08 December 2021 00:00
Search period end: 18 December 2021 00:00
Orbit: 584 x 918 km, 66.7° (Epoch: 07 December)

Date Brightness Start Highest point End Pass type
(mag) Time Alt. Az. Time Alt. Az. Time Alt. Az.
08 Dec 8.1 11:52:18 10° SE 11:55:38 16° ESE 11:59:07 10° ENE visible
08 Dec 5.3 13:32:03 10° SW 13:37:34 62° WNW 13:43:31 10° NNE visible
09 Dec 5.4 12:49:21 10° SSW 12:54:52 77° ESE 13:00:52 10° NNE visible
10 Dec 6.4 12:07:08 10° S 12:12:20 43° ESE 12:17:55 10° NE visible
11 Dec 7.4 11:25:33 10° SSE 11:29:55 24° ESE 11:34:33 10° NE visible
11 Dec 5.5 13:06:49 10° SW 13:12:11 44° WNW 13:17:57 10° NNE visible
12 Dec 8.0 10:45:11 10° SE 10:47:39 13° E 10:50:11 10° ENE visible
12 Dec 5.1 12:23:49 10° SSW 12:29:24 76° WNW 12:35:26 10° NNE visible
13 Dec 5.6 11:41:28 11° SSW 11:46:45 63° ESE 11:52:41 10° NNE visible
13 Dec 6.5 13:25:43 10° W 13:29:55 20° NW 13:34:17 10° N visible
14 Dec 6.6 11:03:41 34° ESE 11:04:16 35° ESE 11:09:38 10° NE visible
14 Dec 5.9 12:43:47 20° WSW 12:46:53 32° NW 12:52:16 10° N visible
15 Dec 7.8 10:24:17 16° ENE 10:24:17 16° ENE 10:26:02 10° ENE visible
15 Dec 5.3 12:04:18 53° NW 12:04:18 53° NW 12:09:55 10° NNE visible
16 Dec 6.5 11:24:12 32° NNE 11:24:12 32° NNE 11:27:20 10° NNE visible
16 Dec 6.8 13:04:10 15° NW 13:04:46 15° NW 13:08:10 10° N visible
17 Dec 7.7 10:43:43 14° NE 10:43:43 14° NE 10:44:28 10° NE visible
17 Dec 6.7 12:23:40 20° NNW 12:23:40 20° NNW 12:26:28 10° N visible
